Arlington, TX

9:51 PM CDT on July 29, 2016 (GMT -0500)
Arlington Municipal

Weather History for KGKY - April, 2014

Change the Weather History Date:

Saturday, April 5, 2014

  Actual Average (KRBD) Record (KRBD)
Temperature  
Mean Temperature 50 °F -  
Max Temperature 55 °F 70 °F 84 °F (2006)
Min Temperature 44 °F 51 °F 37 °F (2011)
Degree Days  
Heating Degree Days 16    
Moisture  
Dew Point 37 °F    
Average Humidity 58    
Maximum Humidity 74    
Minimum Humidity 41    
Precipitation  
Precipitation 0.02 in - - ()
Sea Level Pressure  
Sea Level Pressure 30.04 in    
Wind  
Wind Speed 6 mph (ENE)    
Max Wind Speed 14 mph    
Max Gust Speed -    
Visibility 10 miles    
Events Rain    
Averages and records for this station are not official NWS values.
T = Trace of Precipitation, MM = Missing Value Source: NWS Daily Summary

Daily Weather History Graph

Daily Weather History Graph

Search for Another Location

Airport or City:

Trip Planner

Search our weather history database for the weather conditions in past years. The results will help you decide how hot, cold, wet, or windy it might be!

Date:

Astronomy

Apr. 05, 2014 Rise Set
Actual Time 7:11 AM CDT 7:51 PM CDT
Civil Twilight 6:46 AM CDT 8:16 PM CDT
Nautical Twilight 6:17 AM CDT 8:45 PM CDT
Astronomical Twilight 5:47 AM CDT 9:15 PM CDT
Moon 11:31 AM CDT (4/5) 12:50 AM CDT (4/5)
Length of Visible Light 13h 29m
Length of Day
12h 40m
Waxing Crescent, 34% of the Moon is Illuminated
Apr 5
Waxing Crescent
Apr 7
First Quarter
Apr 15
Full
Apr 22
Last Quarter
Apr 29
New

Hourly Weather History & Observations

Time (CDT) Temp. Windchill Dew Point Humidity Pressure Visibility Wind Dir Wind Speed Gust Speed Precip Events Conditions
12:53 AM 45.0 °F - 37.0 °F 74% 30.12 in 10.0 mi Calm Calm - N/A   Clear
1:53 AM 44.1 °F - 36.0 °F 73% 30.11 in 10.0 mi Calm Calm - N/A   Clear
2:53 AM 45.0 °F 42.6 °F 37.0 °F 74% 30.09 in 10.0 mi NNE 4.6 mph - N/A   Clear
3:53 AM 48.0 °F - 36.0 °F 63% 30.07 in 10.0 mi NNE 3.5 mph - N/A   Clear
4:53 AM 53.1 °F - 35.1 °F 50% 30.06 in 10.0 mi ENE 5.8 mph - N/A   Clear
5:53 AM 52.0 °F - 32.0 °F 47% 30.07 in 10.0 mi NE 5.8 mph - N/A   Clear
6:53 AM 52.0 °F - 30.9 °F 45% 30.08 in 10.0 mi East 6.9 mph - N/A   Clear
7:53 AM 52.0 °F - 28.9 °F 41% 30.09 in 10.0 mi ENE 6.9 mph - N/A   Clear
8:53 AM 53.1 °F - 32.0 °F 45% 30.14 in 10.0 mi East 8.1 mph - N/A   Clear
9:53 AM 53.1 °F - 32.0 °F 45% 30.14 in 10.0 mi East 12.7 mph - N/A   Mostly Cloudy
10:53 AM 54.0 °F - 32.0 °F 43% 30.13 in 10.0 mi East 10.4 mph - N/A   Mostly Cloudy
11:53 AM 54.0 °F - 32.0 °F 43% 30.12 in 10.0 mi East 11.5 mph - N/A   Mostly Cloudy
12:53 PM 55.9 °F - 34.0 °F 44% 30.10 in 10.0 mi East 10.4 mph - N/A   Overcast
1:53 PM 55.9 °F - 35.1 °F 45% 30.07 in 10.0 mi ENE 6.9 mph - N/A   Overcast
2:53 PM 54.0 °F - 39.9 °F 59% 30.00 in 10.0 mi ESE 12.7 mph - 0.00 in Rain Light Rain
3:53 PM 51.1 °F - 42.1 °F 71% 29.95 in 10.0 mi ESE 13.8 mph - 0.01 in Rain Light Rain
4:53 PM 53.1 °F - 43.0 °F 69% 29.94 in 10.0 mi NE 10.4 mph - 0.01 in   Clear
5:53 PM 55.0 °F - 41.0 °F 59% 29.94 in 10.0 mi ENE 10.4 mph - 0.00 in Rain Light Rain
6:53 PM 53.1 °F - 39.9 °F 61% 29.96 in 10.0 mi East 11.5 mph - 0.00 in   Overcast
7:53 PM 53.1 °F - 42.1 °F 66% 29.97 in 10.0 mi ENE 5.8 mph - N/A   Overcast
8:53 PM 52.0 °F - 42.1 °F 69% 29.96 in 10.0 mi NE 5.8 mph - N/A   Scattered Clouds
9:53 PM 53.1 °F - 42.1 °F 66% 29.97 in 10.0 mi ENE 6.9 mph - N/A   Overcast
10:53 PM 51.1 °F - 41.0 °F 68% 29.96 in 10.0 mi ENE 8.1 mph - N/A   Partly Cloudy
11:53 PM 52.0 °F - 39.9 °F 63% 29.96 in 10.0 mi NE 8.1 mph - N/A   Overcast